Location: Inuvik
(68.3607°N, 133.7230°W)
Time: 06:51:45
(UTC-07:00)

N. Korean satellite - Visible Passes

Search period start: 27 November 2020 00:00
Search period end: 07 December 2020 00:00
Orbit: 452 x 504 km, 97.2° (Epoch: 26 November)

Date Brightness Start Highest point End Pass type
(mag) Time Alt. Az. Time Alt. Az. Time Alt. Az.
27 Nov 9.2 06:40:35 10° NE 06:43:23 21° E 06:46:13 10° SE visible
27 Nov 6.5 08:13:40 10° NNE 08:17:13 87° ESE 08:20:50 10° SSW visible
27 Nov 7.5 09:47:16 10° N 09:50:18 27° NW 09:53:22 10° WSW visible
27 Nov 6.4 17:28:37 10° SSE 17:32:03 67° ENE 17:35:33 10° NNW visible
27 Nov 8.7 19:02:41 10° SSW 19:05:43 28° W 19:08:48 10° NNW visible
28 Nov 9.7 06:14:40 10° NE 06:16:48 15° E 06:18:57 10° ESE visible
28 Nov 7.2 07:47:22 10° NNE 07:50:52 57° ESE 07:54:26 10° S visible
28 Nov 7.1 09:20:52 10° NNE 09:24:09 36° NW 09:27:29 10° WSW visible
28 Nov 6.8 17:02:29 10° SE 17:05:49 45° ENE 17:09:11 10° NNW visible
28 Nov 7.9 18:35:56 10° S 18:39:14 42° W 18:42:36 10° NNW visible
28 Nov 10.0 20:12:28 10° W 20:13:32 11° WNW 20:14:36 10° WNW visible
29 Nov 10.1 05:49:26 10° ENE 05:50:08 10° ENE 05:50:50 10° E visible
29 Nov 8.0 07:21:05 10° NNE 07:24:27 38° E 07:27:51 10° SSE visible
29 Nov 6.6 08:54:28 10° NNE 08:57:56 51° WNW 09:01:28 10° SW visible
29 Nov 8.0 10:28:12 10° N 10:30:44 19° NW 10:33:16 10° W visible
29 Nov 7.0 18:09:23 10° S 18:12:49 64° WSW 18:16:21 10° NNW visible
29 Nov 9.7 19:44:37 10° SW 19:46:51 16° W 19:49:07 10° NW visible
30 Nov 8.8 06:54:53 10° NNE 06:57:57 26° E 07:01:04 10° SSE visible
30 Nov 6.4 08:28:05 10° NNE 08:31:40 76° WNW 08:35:17 10° SSW visible
30 Nov 7.7 10:01:44 10° N 10:04:38 23° NW 10:07:33 10° W visible
30 Nov 6.4 17:42:59 10° SSE 17:46:28 84° ENE 17:50:00 10° NNW visible
30 Nov 9.1 19:17:25 10° SW 19:20:15 23° W 19:23:08 10° NW visible
01 Dec 9.4 06:28:48 10° NE 06:31:23 18° E 06:34:00 10° SE visible
01 Dec 6.7 08:01:44 10° NNE 08:05:19 73° ESE 08:08:58 10° SSW visible
01 Dec 7.3 09:35:18 10° NNE 09:38:29 31° NW 09:41:42 10° WSW visible
01 Dec 6.6 17:16:45 10° SE 17:20:09 56° ENE 17:23:39 10° NNW visible
01 Dec 8.3 18:50:31 10° SSW 18:53:43 34° W 18:56:58 10° NNW visible
02 Dec 9.9 06:02:58 10° NE 06:04:44 13° E 06:06:30 10° ESE visible
02 Dec 7.6 07:35:25 10° NNE 07:38:55 48° ESE 07:42:27 10° S visible
02 Dec 6.9 09:08:52 10° NNE 09:12:17 42° WNW 09:15:44 10° SW visible
02 Dec 8.1 10:42:37 10° N 10:44:57 17° NW 10:47:19 10° WNW visible
02 Dec 7.0 16:50:38 10° SE 16:53:55 39° NE 16:57:15 10° NNW visible
02 Dec 7.4 18:23:50 10° S 18:27:14 51° WSW 18:30:43 10° NNW visible
02 Dec 9.8 19:59:38 10° WSW 20:01:24 13° W 20:03:12 10° NW visible
03 Dec 8.4 07:09:08 10° NNE 07:12:26 32° E 07:15:45 10° SSE visible
03 Dec 6.5 08:42:27 10° NNE 08:46:01 61° WNW 08:49:37 10° SW visible
03 Dec 7.9 10:16:08 10° N 10:18:52 21° NW 10:21:38 10° W visible
03 Dec 6.6 17:57:19 10° SSE 18:00:48 78° WSW 18:04:23 10° NNW visible
03 Dec 9.4 19:32:09 10° SW 19:34:44 19° W 19:37:21 10° NW visible
04 Dec 9.1 06:42:56 10° NE 06:45:52 23° E 06:48:49 10° SE visible
04 Dec 6.5 08:16:03 10° NNE 08:19:41 90° SSW 08:23:21 10° SSW visible
04 Dec 7.5 09:49:39 10° N 09:52:44 27° NW 09:55:50 10° WSW visible
04 Dec 6.4 17:30:57 10° SSE 17:34:27 70° ENE 17:38:01 10° NNW visible
04 Dec 8.8 19:05:05 10° SSW 19:08:07 27° W 19:11:15 10° NNW visible
05 Dec 9.6 06:16:54 10° NE 06:19:14 16° E 06:21:34 10° ESE visible
05 Dec 7.1 07:49:40 10° NNE 07:53:16 60° ESE 07:56:55 10° S visible
05 Dec 7.1 09:23:11 10° NNE 09:26:32 36° NW 09:29:53 10° WSW visible
05 Dec 8.2 10:56:59 10° N 10:59:07 15° NNW 11:01:15 10° WNW visible
05 Dec 6.8 17:04:45 10° SE 17:08:08 47° ENE 17:11:36 10° NNW visible
05 Dec 7.9 18:38:15 10° S 18:41:35 40° W 18:45:00 10° NNW visible
05 Dec 10.0 20:14:53 10° W 20:15:54 11° WNW 20:16:56 10° WNW visible
06 Dec 10.1 05:51:21 10° ENE 05:52:31 11° ENE 05:53:40 10° E visible
06 Dec 7.9 07:23:21 10° NNE 07:26:48 40° E 07:30:17 10° S visible
06 Dec 6.7 08:56:44 10° NNE 09:00:16 50° WNW 09:03:50 10° SW visible
06 Dec 8.0 10:30:27 10° N 10:33:01 19° NW 10:35:36 10° W visible
06 Dec 7.2 16:38:40 10° ESE 16:41:53 34° NE 16:45:10 10° NNW visible
06 Dec 7.1 18:11:37 10° S 18:15:06 62° WSW 18:18:41 10° NNW visible
06 Dec 9.7 19:46:55 10° WSW 19:49:10 16° W 19:51:26 10° NW visible
